Regional Weather Roundup
Issued by NWS

Home | Current Version | Previous Version | Text Only | Print | Product List | Glossary Off
Versions: 1 2 3 4 5 6 7 8 9 10 11 12 13 14 15 16 17 18 19 20 21 22 23 24 25 26 27 28 29 30 31 32 33 34 35 36 37 38 39 40 41 42 43 44 45 46 47 48 49 50

000
ASUS43 KLOT 302108
RWRIL

ILLINOIS REGIONAL WEATHER ROUNDUP
NATIONAL WEATHER SERVICE CHICAGO/ROMEOVILLE IL
400 PM CDT THU MAR 30 2017

NOTE: "FAIR" INDICATES FEW OR NO CLOUDS BELOW 12,000 FEET WITH NO
SIGNIFICANT WEATHER AND/OR OBSTRUCTIONS TO VISIBILITY.

* THESE STATIONS ARE NOT UNDER NWS QUALITY CONTROL. THEY ALSO MAY NOT
  REPORT WEATHER SUCH AS PRECIPITATION OR FOG.

ILZ001-002-007-009-015-016-024-302200-
NORTHWEST ILLINOIS

CITY           SKY/WX    TMP DP  RH WIND       PRES   REMARKS
MOLINE         CLOUDY    44  41  89 NE9       29.59R FOG
STERLING*      CLOUDY    45  43  93 E13       29.62R
SAVANNA*       RAIN      42  40  93 N12G18    29.63S
$$

ILZ003-004-008-010-011-017-018-302200-
NORTH CENTRAL ILLINOIS

CITY           SKY/WX    TMP DP  RH WIND       PRES   REMARKS
ROCKFORD       CLOUDY    44  40  85 S3        29.69R
FREEPORT*      CLOUDY    41  39  93 NE9       29.65S
ROCHELLE*      CLOUDY    45  42  91 CALM      29.65R
DE KALB*       CLOUDY    44  42  93 E21G28    29.62R
PERU*          CLOUDY    47  45  90 NE5       29.60R
$$

ILZ005-006-012>014-019>023-302200-
NORTHEAST ILLINOIS

CITY           SKY/WX    TMP DP  RH WIND       PRES   REMARKS
CHICAGO-OHARE  CLOUDY    44  41  89 NE9       29.62R
CHICAGO-MIDWAY CLOUDY    44  44 100 NE12G21   29.61R FOG
AURORA         CLOUDY    47  43  86 E16       29.59F
LANSING*       CLOUDY    47  47 100 N5        29.60S FOG
JOLIET*        CLOUDY    50  47  90 NE9       29.58F
WAUKEGAN       CLOUDY    39  39 100 NE20G30   29.62F FOG     WCI  29
DUPAGE AIRPORT CLOUDY    45  44  97 E14       29.61R
KANKAKEE*      CLOUDY    52  51  94 E10       29.57S
WHEELING       CLOUDY    41  41 100 E10G18    29.65S
MORRIS*        CLOUDY    49  47  90 E8        29.57F
ROMEOVILLE*    CLOUDY    47  47  98 NE9       29.59S
NORTHERLY ISL    N/A     41  39  93 NE13        N/A
$$

LMZ740>746-302200-
SOUTHERN LAKE MICHIGAN

STATION/POSITION SKY/WX   TEMP    WIND        PRES    VSBY  WAVE
                          AIR SEA DIR/SP/G                  HT/PER
                          (F)     (DEG/KT/KT) (MB)    (MI)  (FT/S)
HARRISON CRIB              40      60/ 18/ 19   N/A
BURNHAM HARBOR             40      40/  8/ 20   N/A
CALUMET HARBOR             41      50/  8/ 12 1002.2R
BURNS HARBOR               44      60/ 16/ 27 1002.0F
MICHIGAN CITY              46      70/ 10/ 13   N/A
$$

ILZ025>027-034>036-040-047-049-050-058-095>099-302200-
WEST-CENTRAL ILLINOIS

CITY           SKY/WX    TMP DP  RH WIND       PRES   REMARKS
QUINCY         LGT RAIN  53  52  96 NW3       29.54R
GALESBURG*     CLOUDY    47  47  99 NE12      29.54S FOG
MACOMB*        RAIN      49  49 100 NE6       29.55F
JACKSONVILLE*  RAIN      57  55  91 NW8       29.51F
PITTSFIELD*    LGT RAIN  57  55  95 W9        29.54F
$$

ILZ028>032-037-038-041>044-048-051>054-059>061-302200-
CENTRAL ILLINOIS

CITY           SKY/WX    TMP DP  RH WIND       PRES   REMARKS
PONTIAC        LGT RAIN  54  54  97 NE6       29.56F
BLOOMINGTON    LGT RAIN  59  57  93 NW5       29.54F
DECATUR        RAIN      56  55  97 NW12      29.52F FOG
PEORIA         LGT RAIN  53  52  96 NE9       29.54F FOG
LACON*         CLOUDY    50  49  97 NE6       29.55F
LINCOLN*       LGT RAIN  59  58  96 CALM      29.52S
SPRINGFIELD    LGT RAIN  58  54  86 SE3       29.51F
TAYLORVILLE    LGT RAIN  56  55  95 CALM      29.52F
$$

ILZ033-039-045-046-055>057-062-063-302200-
EAST-CENTRAL ILLINOIS

CITY           SKY/WX    TMP DP  RH WIND       PRES   REMARKS
CHAMPAIGN      TSTM      54  51  90 MISG      29.48F FOG
RANTOUL*       CLOUDY    65  63  91 S5        29.51F
MATTOON        TSTM      55  54  96 W13G21    29.55R FOG
PARIS*         CLOUDY    66  60  81 S14       29.53F
$$

ILZ079-100>102-302200-
SOUTHWEST ILLINOIS

CITY           SKY/WX    TMP DP  RH WIND       PRES   REMARKS
ALTON          CLOUDY    63  55  77 W14G21    29.53S
BELLEVILLE     PTSUNNY   64  56  74 W8        29.51S
CAHOKIA*       CLOUDY    61  51  70 W10       29.54R
SPARTA*        CLOUDY    63  56  78 W7        29.52F
$$

ILZ064>066-069>071-074>076-080>082-084>086-088>090-092>094-302200-
SOUTH-CENTRAL ILLINOIS

CITY           SKY/WX    TMP DP  RH WIND       PRES   REMARKS
CARBONDALE     MOSUNNY   68  57  68 S21G26    29.52F
CAIRO*         CLOUDY    67  58  73 SW13G21   29.56S
EFFINGHAM*     CLOUDY    59  59  99 SW9       29.56R
MARION         PTSUNNY   64  63  94 S12       29.56S
MT. VERNON     PTSUNNY   65  59  81 SW15      29.53F
CENTRALIA*     LGT RAIN  59  58  94 CALM      29.54R
SALEM*         HVY RAIN  61  57  86 SW9       29.56R
METROPOLIS*    LGT RAIN  64  60  88 SW17G23   29.58S
$$

ILZ067-068-072-073-078-083-087-091-302200-
SOUTHEAST ILLINOIS

CITY           SKY/WX    TMP DP  RH WIND       PRES   REMARKS
LAWRENCEVILLE  TSTM      61  57  87 SW14      29.54R FOG
FLORA*         LGT RAIN  65  58  77 SW15G24   29.54R
FAIRFIELD*     CLOUDY    64  57  79 S14G20    29.55R
HARRISBURG*    RAIN      61  57  88 SW14G29   29.57R
ROBINSON*      CLOUDY    67  58  72 S15G24    29.53R
CARMI*         LGT RAIN  65  59  82 SW12      29.54S
$$

ABBREVIATIONS USED IN REMARKS
   TC - TEMPERATURE IN CELSIUS
  WCI - WIND CHILL INDEX
   HX - HEAT INDEX
  VSB - VISIBILITY
$$





USA.gov is the U.S. government's official web portal to all federal, state and local government web resources and services.